Home   Weather   Narragansett   Past weeks

Flag for USA Past Weather in Narragansett, Rhode Island, USA — Yesterday and Last 2 Weeks

Now
59 °F

Sunny.


Feels Like: 56 °F
Forecast: 50 / 66 °F
Wind: 15 mph from Northwest

Location: Newport State Airport

Current Time: Sep 25, 2016 at 11:45:41 AM

Latest Report: Sep 25, 2016 at 10:53 AM


Visibility: 10 mi

Pressure: 30.14 "Hg

Humidity: 44%

Dew Point: 37 °F

Location of NarragansettLocation

Past Weather in Narragansett — Graph

°F

Narragansett Temperature Yesterday

Maximum temperature yesterday: 67 °F (at 3:53 PM)
Minimum temperature yesterday: 50 °F (at 11:53 PM)
Average temperature yesterday: 60 °F

High & Low Weather Summary for the Past Weeks

 TemperatureHumidityPressure
High83 °F (Sep 21, 2:53 PM)100% (Sep 10, 7:01 PM)30.36 "Hg (Sep 10, 7:01 PM)
Low50 °F (Sep 16, 3:53 AM)38% (Sep 12, 1:53 PM)29.89 "Hg (Sep 11, 9:53 AM)
Average67 °F79%30.12 "Hg
* Reported Sep 10 9:53 AM — Sep 25 9:53 AM, Narragansett, Weather by CustomWeather, © 2016

Note: Actual official high and low records may vary slightly from our data, if they occured in-between our weather recording intervals... More about our weather records

Advertising

Narragansett Weather History for the Previous 24 Hours

Scroll right to see more
 ConditionsComfort  
Time TempWeatherWind HumidityBarometerVisibility
9:53 AM
Sun, Sep 25
57 °FSunny.13 mph49%30.14 "Hg10 mi
8:53 AM55 °FSunny.12 mph55%30.14 "Hg10 mi
7:53 AM52 °FSunny.12 mph59%30.14 "Hg10 mi
6:53 AM50 °FSunny.9 mph63%30.13 "Hg10 mi
5:53 AM51 °FClear.10 mph61%30.12 "Hg10 mi
4:53 AM51 °FClear.14 mph63%30.10 "Hg10 mi
3:53 AM52 °FClear.8 mph64%30.09 "Hg10 mi
2:53 AM55 °FClear.13 mph57%30.09 "Hg10 mi
1:53 AM55 °FClear.8 mph59%30.09 "Hg10 mi
12:53 AM54 °FClear.7 mph64%30.09 "Hg10 mi
11:53 PM
Sat, Sep 24
50 °FClear.No wind80%30.10 "Hg10 mi
10:53 PM52 °FClear.No wind72%30.10 "Hg10 mi
9:53 PM57 °FClear.5 mph58%30.10 "Hg10 mi
8:53 PM60 °FPassing clouds.7 mph52%30.10 "Hg10 mi
7:53 PM60 °FClear.6 mph47%30.08 "Hg10 mi
6:53 PM60 °FClear.7 mph47%30.07 "Hg10 mi
5:53 PM64 °FSunny.8 mph43%30.05 "Hg10 mi
4:53 PM66 °FPassing clouds.10 mph39%30.04 "Hg10 mi
3:53 PM67 °FPartly sunny.8 mph42%30.04 "Hg10 mi
2:53 PM66 °FSunny.8 mph42%30.06 "Hg10 mi
1:53 PM66 °FPassing clouds.9 mph45%30.06 "Hg10 mi
12:53 PM66 °FPassing clouds.8 mph47%30.08 "Hg10 mi
11:53 AM62 °FPassing clouds.8 mph58%30.09 "Hg10 mi
11:02 AM61 °FMostly cloudy.12 mph62%30.10 "Hg10 mi
Weather by CustomWeather, © 2016

See weather overviewHow to use our weather pages